Retour au catalogue

CZ-4B R/B

ActifSSO
NORAD 25732·ROCKET BODY·🇨🇳 China

Lancé May 10, 1999 depuis Taiyuan Satellite Launch Center

Loading…

Prochains Passages (prochaines 24 heures)

TLE

FraisSource: Space-Track

Époque: Sep 14, 2026, 14:38 UTC

1 25732U 99025C   26257.60995797  .00000033  00000-0  36317-4 0  9998
2 25732  98.6411 297.1666 0037519 159.6932 353.3695 14.18295328414946

Suivez CZ-4B R/B en temps réel avec AllMySat

Download on the App Store